Theta_e
320 321 322 322 323 323 323 322 322 323 323 322 325 326 325 324 322 321 321 324 325 324 326 327 326 328 327 327 326 325 321 318 315 318 316 319 319 320 321 324 324 322 321
313 312 311 313 313 313 313 313 313 312 314 316 316 316 316 320 323 323 322 323 323 322 325 328 327 327 326 323 320 318 318 320 317 315 318 317 316 319 319 319 318 320 321
306 305 306 307 307 307 308 308 309 309 309 310 311 311 312 313 312 312 311 311 311 312 313 315 315 315 313 314 317 318 319 319 318 314 315 318 317 317 318 318 318 319 320
304 303 303 303 303 304 304 305 305 306 306 307 308 308 308 310 308 308 307 307 307 307 308 309 310 310 310 311 311 311 311 309 310 308 308 310 313 318 318 316 317 320 318
303 302 301 302 303 303 303 303 304 304 305 305 305 306 306 308 305 304 303 303 303 303 304 304 306 307 308 309 307 307 306 305 305 305 305 307 307 310 311 314 313 315 317
302 301 302 302 302 302 302 302 302 301 301 302 302 302 302 303 300 301 302 301 301 300 300 301 302 303 304 304 302 303 304 302 301 301 302 303 305 305 307 308 308 308 306
302 302 302 302 301 300 300 299 298 298 298 298 298 298 298 299 298 298 300 300 299 299 298 298 299 301 301 300 300 301 302 302 303 303 301 301 302 304 305 304 305 306 306
300 301 301 300 299 298 297 296 296 295 295 295 295 296 296 296 297 296 297 298 297 297 298 298 298 298 299 299 299 298 299 299 301 301 303 303 304 305 305 305 305 305 306
296 297 297 297 295 294 293 292 293 292 292 292 293 293 293 294 295 294 296 297 296 297 297 298 298 298 296 295 297 296 296 298 300 299 299 298 297 296 298 301 299 299 299
294 294 293 293 293 292 291 290 291 290 290 291 292 293 293 294 293 293 296 297 296 296 298 298 297 297 295 294 296 296 294 296 297 298 299 300 299 300 299 301 300 296 296
293 293 292 291 290 291 290 289 288 288 288 289 290 291 292 294 297 295 295 296 295 295 295 296 297 295 294 293 293 295 294 295 295 295 296 296 298 298 299 300 301 300 298
290 290 289 288 288 289 287 287 287 287 287 288 291 292 295 296 296 295 294 293 293 292 292 294 295 294 293 292 293 293 292 293 294 294 293 293 295 296 297 300 301 302 304
287 286 286 286 286 287 286 286 286 288 289 290 291 291 292 294 295 294 292 291 292 292 293 294 293 293 292 293 293 293 293 294 294 292 292 294 295 297 300 301 302 302 303
284 284 285 285 287 288 287 288 289 289 290 290 290 290 291 292 293 291 290 291 291 292 293 293 294 293 293 295 295 295 295 295 294 294 295 297 299 300 300 300 299 300 299
284 285 286 287 288 288 289 290 290 291 291 290 290 290 289 288 288 289 289 289 290 291 291 293 293 294 293 294 295 296 296 296 295 295 295 296 297 299 300 302 301 300 299
285 286 288 288 288 289 289 290 291 291 291 290 289 289 288 288 288 289 289 289 289 290 292 292 293 293 293 295 296 296 298 298 298 298 298 298 298 299 300 302 303 301 300
287 287 288 288 288 287 287 287 286 289 290 289 288 288 288 288 288 288 289 289 289 290 291 291 293 294 295 296 297 297 298 301 302 301 301 302 301 301 300 302 303 301 301
288 289 288 288 288 287 287 287 287 286 285 286 288 287 287 288 288 288 288 289 288 289 289 289 290 292 294 297 298 297 299 299 298 299 299 300 304 305 305 304 302 302 302
289 289 288 288 288 288 287 287 287 287 286 285 286 286 287 287 287 287 287 286 286 286 287 288 290 292 294 295 296 295 295 295 295 296 297 298 300 302 305 307 306 296 297
288 288 288 288 288 287 287 286 286 285 285 285 284 284 285 286 285 285 286 286 285 286 287 287 289 291 292 293 292 293 292 293 293 293 293 295 297 300 302 305 309 307 304
288 288 286 287 287 287 286 286 285 285 284 284 284 284 283 284 283 284 284 285 285 285 286 287 287 288 289 289 290 289 290 290 290 289 290 292 294 299 301 303 309 310 311
288 287 287 286 286 285 284 285 284 284 283 283 283 283 283 284 283 283 284 284 285 286 287 287 286 287 287 287 287 287 286 287 287 287 287 290 292 297 300 301 306 313 311
288 287 285 284 282 282 282 282 282 282 282 282 282 281 281 281 282 282 283 284 284 285 286 286 286 286 287 287 287 286 285 285 285 286 287 287 290 295 299 300 303 310 309
286 284 282 281 281 280 280 280 280 280 280 280 279 279 279 280 281 281 282 282 283 284 285 285 285 285 286 285 286 285 286 285 286 287 287 287 289 293 299 299 303 310 308
283 282 281 280 280 279 279 280 280 280 280 279 279 279 279 280 279 280 281 282 282 283 283 284 284 284 285 284 284 284 284 284 285 285 288 289 291 295 298 298 302 309 307
282 281 280 280 279 279 279 279 279 279 279 279 279 279 279 278 279 280 280 280 281 282 282 283 283 284 284 284 283 283 283 284 284 285 287 291 292 293 294 295 300 304 309
Wind_Speed
10 10 11 8 7 9 9 8 8 7 6 6 6 5 4 4 4 4 4 4 4 5 5 7 8 8 5 4 3 5 7 6 10 6 2 2 3 6 7 6 6 7 7
9 11 10 8 9 10 9 9 8 10 10 10 11 10 9 9 8 7 6 6 5 7 7 7 7 4 5 3 3 5 6 7 7 11 8 4 5 5 6 7 6 7 7
9 10 9 10 11 10 10 10 11 10 10 10 9 9 8 7 7 6 6 6 6 6 5 4 3 2 1 3 3 4 4 4 5 6 7 6 5 4 8 6 6 9 8
11 11 10 9 9 9 8 9 9 8 8 8 7 8 8 7 8 8 7 7 7 7 8 8 7 7 7 6 5 6 6 5 5 6 7 8 8 8 6 7 10 7 8
10 10 8 7 7 7 8 8 7 8 7 7 7 7 7 5 5 6 5 6 6 6 6 6 6 8 10 7 6 5 5 6 6 8 9 8 8 7 8 8 9 9 10
8 8 7 6 6 6 6 6 6 6 6 5 6 6 6 5 5 5 4 5 6 6 7 6 6 9 7 7 10 12 10 9 10 9 10 11 10 7 8 9 10 10 13
8 6 7 6 6 6 6 6 6 5 4 6 6 7 7 7 9 10 10 6 6 6 7 7 7 5 8 7 8 9 9 11 12 12 13 11 12 10 10 11 12 12 12
7 7 7 6 6 6 6 5 5 4 5 6 7 8 8 8 10 9 8 5 5 6 7 8 8 9 8 9 10 9 9 9 10 9 10 10 10 8 9 10 11 12 11
9 7 6 5 4 4 5 5 4 4 5 5 7 8 8 9 11 10 5 3 6 8 8 8 9 10 11 11 11 12 13 12 9 11 14 14 13 12 11 9 10 10 11
6 5 5 4 4 4 4 5 3 4 8 7 9 7 9 7 9 9 3 5 7 7 8 9 9 10 12 12 12 12 13 11 12 13 12 12 13 12 16 14 11 12 11
5 6 6 6 7 4 5 4 6 7 7 7 7 7 6 6 6 8 9 6 6 8 9 9 9 11 11 12 13 12 13 13 16 12 11 12 12 12 11 11 12 11 11
6 6 6 6 5 6 5 5 5 5 5 6 5 5 4 5 6 7 8 9 12 9 10 9 10 13 16 19 16 17 18 16 9 9 9 11 11 10 9 10 12 12 11
4 5 5 5 5 5 5 5 4 4 4 5 4 5 5 4 4 6 11 13 13 9 8 12 18 19 19 16 17 17 15 8 8 8 10 11 10 9 11 11 11 12 13
5 5 5 6 7 6 4 3 3 4 4 4 4 5 5 5 4 7 8 7 11 9 10 9 11 14 14 11 10 8 6 7 8 9 10 11 10 10 11 10 9 9 9
5 4 5 4 5 5 4 4 4 4 4 3 4 5 6 6 7 11 10 7 7 8 10 6 7 7 8 9 8 8 7 7 8 9 10 11 11 10 11 10 9 8 8
4 4 4 4 4 4 3 4 6 7 9 9 9 6 6 8 12 13 14 14 13 12 2 5 6 7 8 8 8 9 9 11 9 10 10 11 11 10 10 9 8 8 7
4 4 3 3 3 4 4 4 4 4 6 9 10 10 12 11 12 13 14 12 9 9 5 6 7 7 8 8 8 9 10 10 12 10 10 11 8 9 8 8 6 6 7
3 4 2 3 4 4 5 5 4 5 6 6 7 10 13 14 13 13 14 8 6 7 6 7 7 8 9 8 8 10 10 10 12 12 12 12 9 7 8 6 6 7 7
1 2 4 4 4 5 5 6 5 6 6 6 6 9 12 12 10 11 11 6 6 7 7 7 8 8 8 9 9 9 10 10 11 12 12 13 12 11 11 5 2 7 7
4 8 6 4 4 5 6 7 6 7 6 6 7 8 8 6 7 9 9 8 7 7 7 8 8 9 9 9 10 10 10 11 11 12 13 13 14 12 11 12 2 3 5
4 5 4 5 6 6 7 7 7 6 7 7 7 10 12 7 8 8 8 8 8 8 8 8 8 8 9 10 10 10 11 11 11 11 11 12 13 14 13 10 7 3 4
5 5 5 6 7 8 7 6 7 7 7 7 7 8 14 8 8 8 8 9 8 8 8 8 8 8 9 10 10 10 11 11 12 12 11 11 12 12 14 13 10 2 3
6 7 7 7 8 8 8 8 7 8 8 8 8 8 9 9 9 9 10 10 9 9 9 9 9 10 9 10 10 10 10 11 12 12 12 12 12 12 12 13 11 3 4
7 8 9 8 7 8 7 7 7 9 9 9 9 9 9 9 9 11 10 10 10 10 10 9 10 14 12 11 10 11 11 12 11 12 16 10 10 11 11 13 12 4 2
8 8 8 8 8 7 7 8 8 8 9 9 9 9 9 9 9 10 10 9 10 10 12 12 10 15 16 19 19 21 19 20 16 16 11 10 12 15 11 10 11 3 3
8 9 7 7 7 7 8 7 8 8 8 8 8 9 10 9 9 9 9 11 9 10 13 10 14 21 20 16 21 22 23 22 20 22 13 11 10 9 9 11 14 8 1
Wind_Direction
81 87 89 78 78 77 70 56 43 33 28 38 34 22 7 345 338 337 318 300 268 231 217 211 218 219 242 222 215 248 253 242 249 272 251 287 258 249 258 249 240 225 232
80 78 69 65 61 60 57 54 49 49 41 43 43 39 27 29 24 18 358 331 287 267 265 246 249 227 237 198 223 234 238 237 245 262 275 262 225 240 249 253 247 247 247
66 66 63 64 66 65 59 51 45 42 40 43 41 29 23 41 35 28 27 22 14 7 5 5 357 322 356 15 336 294 272 268 246 253 265 269 271 260 263 248 249 255 242
69 66 62 59 66 67 62 55 48 43 43 35 31 27 13 24 26 17 18 15 10 7 360 356 351 1 355 339 309 284 282 280 279 269 263 258 257 258 258 271 268 256 272
89 84 75 72 66 58 54 52 52 48 37 33 32 31 18 29 24 14 13 5 355 340 334 330 328 318 313 298 298 303 305 295 288 280 276 269 262 252 253 267 273 276 273
83 87 90 77 69 66 62 56 51 42 33 27 18 9 2 347 330 317 329 324 311 305 307 308 303 298 291 314 306 297 288 287 280 275 272 267 268 256 258 258 266 268 268
78 74 70 67 68 50 45 45 39 24 3 355 346 342 330 321 316 320 319 319 320 321 316 317 315 312 308 300 289 280 274 270 269 277 277 273 277 272 269 268 263 259 264
67 60 57 55 54 39 33 22 4 353 345 335 323 323 320 316 318 321 325 325 313 310 308 308 304 304 303 307 307 299 295 289 281 281 281 282 277 283 281 283 283 280 273
73 67 57 52 47 26 10 350 330 325 313 304 304 312 317 308 315 316 324 335 316 310 312 309 307 306 304 301 313 309 308 303 288 267 267 269 268 269 268 283 275 276 276
76 74 59 35 11 343 334 319 294 303 304 315 312 306 299 303 316 322 346 331 326 323 320 314 294 296 301 307 308 303 296 298 301 301 295 286 277 270 258 257 262 261 260
33 22 8 360 343 317 313 313 312 313 307 303 298 301 308 308 327 350 347 339 328 321 317 314 314 320 314 305 296 291 282 289 288 283 282 283 282 271 259 249 245 245 248
3 340 333 326 314 313 301 302 311 310 310 304 306 323 336 336 346 327 352 358 330 312 306 307 303 301 302 301 299 289 283 282 277 270 271 269 268 264 256 248 248 245 244
326 323 317 317 331 337 328 325 324 317 316 328 332 326 327 332 321 28 349 327 319 311 293 289 293 294 290 287 277 275 276 270 262 262 261 263 258 266 272 261 252 248 245
329 342 351 357 349 341 323 307 306 324 326 329 328 325 327 333 355 345 330 319 305 297 295 292 288 285 276 279 294 289 273 258 255 257 257 259 260 258 255 251 248 242 232
358 353 349 323 325 322 320 310 317 320 327 324 0 347 347 343 340 324 314 311 311 299 310 309 320 324 318 314 305 296 290 276 264 261 261 262 259 257 254 250 235 234 236
6 344 333 332 331 318 324 352 23 19 76 64 35 28 354 336 331 329 330 327 320 316 284 312 315 312 309 309 313 317 309 300 288 277 270 265 266 262 258 256 233 218 222
332 331 329 354 3 12 14 20 12 5 43 45 28 5 359 347 345 348 341 334 341 347 354 333 324 321 318 322 324 323 321 329 327 323 314 296 263 265 256 258 239 213 214
329 9 40 36 31 27 33 33 27 23 17 10 17 8 1 358 359 354 352 351 3 3 353 338 332 330 327 333 341 340 339 341 338 340 342 341 341 283 274 253 207 209 215
300 58 54 55 53 44 38 38 29 34 31 20 9 11 4 357 0 10 10 20 0 351 346 345 338 332 336 338 344 336 341 339 336 339 344 342 341 330 326 293 269 193 202
82 81 68 62 53 50 47 43 35 31 31 24 23 9 353 357 16 15 16 11 3 353 347 344 337 337 342 344 338 337 337 340 343 339 339 338 337 334 341 326 244 197 204
89 80 69 68 58 54 53 40 37 35 33 29 26 11 0 17 15 12 7 5 1 354 350 349 350 345 343 344 342 341 341 337 339 332 329 329 333 334 342 334 322 16 140
93 85 72 66 63 57 47 36 38 36 33 29 20 16 11 20 18 9 7 3 359 355 351 350 352 349 351 346 346 343 338 336 335 330 326 323 324 328 338 338 335 59 87
85 79 68 64 66 67 60 51 41 36 32 26 18 16 13 14 13 8 5 360 355 356 355 354 356 352 353 349 348 345 338 337 330 322 322 321 320 327 334 340 326 33 74
79 77 78 70 65 68 65 56 48 43 37 29 20 18 16 15 10 8 5 359 356 356 355 355 357 353 352 353 349 346 341 335 326 321 324 310 309 315 327 332 328 94 107
76 80 76 70 66 68 68 59 52 46 39 30 24 19 17 14 13 9 1 359 357 356 356 355 357 353 360 357 354 350 345 341 341 332 324 314 308 318 327 326 332 343 108
79 80 78 71 65 65 64 58 51 47 41 35 24 20 16 16 8 5 0 4 356 357 354 353 356 358 359 358 353 348 350 349 348 343 334 341 337 334 338 321 335 350 269